Content
SEND FEEDBACK

Daily
Averages
Monthly
Summary
United States of America

ASHEVILLE, NORTH CAROLINA


Home > North America > United States > North Carolina
Elevation: 2240 feet     Latitude: 35 36N     Longitude: 082 32W

WEATHER
 
SELECT A DAY
Number of Records: 226,157;   Date Range: 1/1/95 - 8/17/14
 
SHARE

PRINT THIS DATA

[ ← Previous Day ]
WEATHER ALMANAC - APRIL 1, 2013
[ Next Day → ]
[ °C ]   °F
Weather ElementAverageHighLow
Temperature50.8 °F63 °F (1:54 pm)41 °F (7:54 am)
Dewpoint39.9 °F46.9 °F (1:54 am)30 °F (11:54 pm)
Humidity71.3 %100 % (8:15 am)34 % (3:15 pm)
Barometer29.93 in29.97 in (9:19 am)29.85 in (2:54 am)
Wind Speed7.7 mph15 mph (3:54 pm)
Wind Gust25.3 mph (3:15 pm)
Weather ElementAverage
Visibility7.8 mi
Wind DirectionWNW (305.2 °)

Weather ElementTotal
Precipitation---
Heating Degree Days13 (Base 65)
Growing Degree Days2 (Base 50)
Averaged from 31 records on April 1, 2013
WEATHER CONDITIONS BREAKOUT
WIND DIRECTION BREAKOUT
WEATHER BY HOUR - APRIL 1, 2013
[ °C ]   °F
Local TimeTemperatureDewpointHumidityBarometerVisibilityWind DirectionWind SpeedGust SpeedPrecipitationEventsConditions
1:54 AM50.0 °F46.9 °F89 %29.86 in10.0 miNNW (330°)6.9 mph0.00 inOvercast
2:54 AM48.9 °F46.0 °F90 %29.85 in10.0 miNNW (340°)5.8 mphScattered Clouds
3:54 AM48.9 °F46.0 °F90 %29.85 in10.0 miNNW (340°)10.4 mphMostly Cloudy
4:54 AM44.6 °F42.8 °F93 %29.89 in10.0 miNorth (350°)3.5 mphClear
5:54 AM44.6 °F42.8 °F93 %29.91 in10.0 miNorth (360°)3.5 mphClear
6:54 AM42.1 °F41.0 °F96 %29.91 in10.0 miNNW (340°)3.5 mphClear
7:54 AM41.0 °F39.9 °F96 %29.93 in10.0 miNNW (340°)5.8 mphClear
8:12 AM42.8 °F41.0 °F93 %29.95 in2.0 miNNW (330°)5.8 mphPartly Cloudy
8:15 AM41.0 °F41.0 °F100 %29.96 in1.2 miNNW (340°)5.8 mphScattered Clouds
8:17 AM41.0 °F41.0 °F100 %29.96 in0.8 miNNW (330°)5.8 mphMist
8:29 AM42.8 °F42.8 °F100 %29.96 in0.2 miNNW (340°)6.9 mphFogFog
8:54 AM44.6 °F44.6 °F100 %29.96 in0.2 miNW (320°)3.5 mphFogFog
9:19 AM44.6 °F44.6 °F100 %29.97 in1.0 miNNW (340°)5.8 mphMist
9:21 AM44.6 °F44.6 °F100 %29.97 in2.0 miNorth (350°)5.8 mphMostly Cloudy
9:33 AM46.4 °F44.6 °F93 %29.96 in4.0 miNW (320°)3.5 mphScattered Clouds
9:54 AM48.0 °F46.0 °F93 %29.94 in10.0 miCalmPartly Cloudy
10:54 AM55.4 °F42.8 °F63 %29.97 in10.0 miNNW (340°)9.2 mphClear
11:54 AM59.0 °F37.4 °F45 %29.97 in10.0 miNorth (360°)8.1 mphClear
12:54 PM61.0 °F37.9 °F42 %29.92 in10.0 miNNW (330°)10.4 mphClear
1:54 PM63.0 °F37.0 °F38 %29.91 in10.0 miNNE (20°)11.5 mph21.9 mphScattered Clouds
2:54 PM61.0 °F34.0 °F36 %29.91 in10.0 miNorth (10°)11.5 mph21.9 mphOvercast
3:15 PM62.6 °F33.8 °F34 %29.94 in10.0 miNW (310°)13.8 mph25.3 mphMostly Cloudy
3:54 PM62.1 °F34.0 °F35 %29.90 in10.0 miNW (320°)15.0 mph21.9 mphMostly Cloudy
4:54 PM61.0 °F35.1 °F38 %29.91 in10.0 miNW (320°)13.8 mphMostly Cloudy
5:54 PM57.0 °F39.0 °F51 %29.92 in10.0 miNorth (350°)9.2 mph0.00 inRainLight Rain
6:54 PM55.9 °F39.9 °F55 %29.94 in10.0 miNorth (350°)10.4 mphScattered Clouds
7:54 PM55.0 °F34.0 °F45 %29.94 in10.0 miNW (320°)9.2 mph18.4 mphPartly Cloudy
8:54 PM54.0 °F37.9 °F55 %29.95 in10.0 miNorth (360°)6.9 mphScattered Clouds
9:54 PM53.1 °F35.1 °F50 %29.96 in10.0 miNNW (340°)8.1 mphMostly Cloudy
10:54 PM50.0 °F33.1 °F52 %29.97 in10.0 miNNW (340°)6.9 mphScattered Clouds
11:54 PM50.0 °F30.0 °F46 %29.97 in10.0 miNW (320°)12.7 mphClear
Hourly data recorded from KAVL, located miles away from Asheville, North Carolina







STORIES FROM OUR PARTNERS